STARLINK-34755

Last updated on Tue Aug 26 2025 00:02:05 GMT+0000 (Coordinated Universal Time)

1 64940U 25158J 25237.55972034 .00066694 00000+0 89561-3 0 9990 2 64940 97.6000 100.4472 0002682 111.4992 248.6550 15.57705037 5825

Satellite not in orbit

STARLINK-34755